Location: Shannon
(40.5500°S, 175.4167°E)
Time: 21:34:13
(UTC+00:00)

Meteor 2-10 Rocket - Pass Details

Date: 17 November 2025
Orbit: 732 x 882 km, 81.2° (Epoch: 06 December)

Event Time Altitude Azimuth Distance (km) Brightness Sun altitude
Exits shadow 13:56:59 69° 295° (WNW) 830 3.4 -24.7°
Maximum altitude 13:57:23 73° 259° (W) 815 3.5 -24.7°
Drops below altitude 10° 14:02:45 10° 174° (S) 2,387 6.9 -24.2°
Sets 14:05:12 0° 172° (S) 3,348 7.9 -23.9°
